Orbital Elements at Epoch 2459200.5 (2020-Dec-17.0) TDB
Reference: JPL 27 (heliocentric ecliptic J2000)
Element | Value | Uncertainty (1-sigma) | Units |
e | .1374127614637655 | 3.5618e-08 | |
a | 2.632752302705258 | 1.1483e-08 | au |
q | 2.270978538540441 | 9.6333e-08 | au |
i | 4.064530536632306 | 4.5397e-06 | deg |
node | 62.82643814207521 | 5.1489e-05 | deg |
peri | 290.3635465088919 | 5.4131e-05 | deg |
M | 308.3141193582676 | 1.8416e-05 | deg |
tp | 2459424.517965323026 (2021-Jul-29.01796532) | 8.0346e-05 | TDB |
period | 1560.319114523778 4.27 | 1.0208e-05 2.795e-08 | d yr |
n | .2307220341333029 | 1.5094e-09 | deg/d |
Q | 2.994526066870074 | 1.3061e-08 | au |
|
| | Orbit Determination Parameters
Additional Information
|